This demonstration page uses our WeatherBlox Daily Observations layout. Learn more.

Left ArrowRight Arrow

39.12711, -84.51439

Hourly Observations for August 21, 2018

Temp ( °F °C ) Dew Point ( °F °C ) Humidity (%) Winds ( mph kmh ) Pressure ( in mb ) Visibility ( mi km ) Precip ( " mm )
12:53 am 00:53 Partly Cloudy 72 22.2 72 22.2 100 100 N N/A 29.86 1011 8 13 N/A
2:53 am 02:53 Clear 74 23.3 72 22.2 94 94 S 6 9 29.81 1009 10 16 N/A
3:53 am 03:53 Partly Cloudy 74 23.3 72 22.2 94 94 S 9 15 29.81 1010 10 16 N/A
4:53 am 04:53 Mostly Cloudy 74 23.3 73 22.8 97 97 S 12 19 29.81 1010 10 16 N/A
5:53 am 05:53 Mostly Clear 73 22.8 72 22.2 96 96 S 10 17 29.80 1009 10 16 N/A
6:35 am 06:35 Mostly Cloudy 72 22.2 71 21.7 97 97 S 10 17 29.83 1010 10 16 N/A
6:53 am 06:53 Mostly Cloudy 72 22.2 71 21.7 97 97 SSW 9 15 29.81 1010 10 16 N/A
7:53 am 07:53 Mostly Cloudy 72 22.2 70 21.1 94 94 S 9 15 29.84 1010 10 16 N/A
8:53 am 08:53 Mostly Cloudy 74 23.3 70 21.1 88 88 SW 10 17 29.85 1011 10 16 N/A
9:53 am 09:53 Mostly Cloudy 75 23.9 69 20.6 82 82 SW 12 19 29.85 1011 10 16 N/A
10:53 am 10:53 Mostly Cloudy 77 25 68 20 74 74 WSW 14 22 29.85 1011 10 16 N/A
11:53 am 11:53 Mostly Cloudy 78 25.6 69 20.6 74 74 SW 14 22 29.85 1011 10 16 N/A
12:53 pm 12:53 Mostly Cloudy 78 25.6 68 20 71 71 SW 15 24 29.84 1011 10 16 N/A
1:53 pm 13:53 Mostly Cloudy 80 26.7 69 20.6 69 69 WSW 13 20 29.83 1010 10 16 N/A
2:53 pm 14:53 Partly Cloudy 83 28.3 68 20 61 61 WSW 17 28 29.82 1010 10 16 N/A
3:53 pm 15:53 Mostly Cloudy 80 26.7 69 20.6 69 69 WSW 17 28 29.82 1010 10 16 N/A
4:53 pm 16:53 Mostly Sunny 82 27.8 69 20.6 65 65 WSW 14 22 29.82 1010 10 16 N/A
5:53 pm 17:53 Partly Cloudy 82 27.8 68 20 63 63 W 12 19 29.82 1010 10 16 N/A
6:53 pm 18:53 Mostly Cloudy 81 27.2 69 20.6 67 67 W 13 20 29.83 1010 10 16 N/A
7:53 pm 19:53 Partly Cloudy 79 26.1 68 20 69 69 W 16 26 29.85 1011 10 16 N/A
8:53 pm 20:53 Mostly Cloudy 78 25.6 69 20.6 74 74 WNW 13 20 29.87 1012 10 16 N/A
9:53 pm 21:53 Cloudy 74 23.3 68 20 82 82 WSW 6 9 29.90 1012 10 16 N/A
10:53 pm 22:53 Mostly Cloudy 74 23.3 69 20.6 85 85 W 8 13 29.91 1013 10 16 N/A
11:53 pm 23:53 Cloudy 74 23.3 69 20.6 85 85 WNW 9 15 29.92 1013 10 16 N/A

Powered by AerisWeather